Content
SEND FEEDBACK

Daily
Averages
Monthly
Summary
United States of America

SOUTHPORT, NORTH CAROLINA


Home > North America > United States > North Carolina
Elevation: 38 feet     Latitude: 34 00N     Longitude: 078 01W

WEATHER
 
SELECT A DAY
Number of Records: 147,806;   Date Range: 8/21/01 - 12/17/14
 
SHARE

PRINT THIS DATA

[ ← Previous Day ]
WEATHER ALMANAC - MARCH 5, 2013
[ Next Day → ]
[ °C ]   °F
Weather ElementAverageHighLow
Temperature49 °F58.1 °F (12:15 pm)32 °F (4:15 am)
Dewpoint41.2 °F52.7 °F (11:55 pm)27.5 °F (12:55 am)
Humidity75.6 %94 % (6:35 am)55 % (1:15 pm)
Barometer29.97 in30.13 in (4:35 am)29.65 in (11:55 pm)
Wind Speed6.7 mph15 mph (10:55 pm)
Wind Gust26.5 mph (11:55 pm)
Weather ElementAverage
Visibility9.7 mi
Wind DirectionSSE (156.2 °)

Weather ElementTotal
Precipitation0.10 in
Heating Degree Days20 (Base 65)
Averaged from 63 records on March 5, 2013
WEATHER CONDITIONS BREAKOUT
WIND DIRECTION BREAKOUT
WEATHER BY HOUR - MARCH 5, 2013
[ °C ]   °F
Local TimeTemperatureDewpointHumidityBarometerVisibilityWind DirectionWind SpeedGust SpeedPrecipitationEventsConditions
12:55 AM32.2 °F27.5 °F83 %30.11 in10.0 miCalmClear
1:35 AM32.5 °F28.6 °F85 %30.11 in10.0 miCalmClear
1:55 AM32.4 °F28.8 °F87 %30.11 in10.0 miCalmClear
2:15 AM32.2 °F29.1 °F88 %30.10 in10.0 miCalmClear
2:35 AM32.7 °F29.3 °F87 %30.10 in10.0 miCalmClear
2:55 AM32.4 °F29.1 °F88 %30.10 in10.0 miCalmClear
3:15 AM32.2 °F29.1 °F88 %30.09 in10.0 miCalmClear
3:55 AM32.5 °F29.3 °F88 %30.11 in10.0 miCalmClear
4:15 AM32.0 °F29.8 °F92 %30.12 in10.0 miCalmClear
4:35 AM33.1 °F30.6 °F90 %30.13 in10.0 miCalmClear
4:55 AM32.7 °F30.2 °F90 %30.12 in10.0 miCalmClear
5:15 AM33.3 °F30.4 °F89 %30.13 in10.0 miCalmClear
5:55 AM33.1 °F31.1 °F92 %30.13 in10.0 miCalmClear
6:15 AM33.1 °F31.3 °F93 %30.13 in10.0 miCalmClear
6:35 AM32.5 °F31.1 °F94 %30.13 in10.0 miCalmClear
7:35 AM34.9 °F32.4 °F91 %30.13 in10.0 miCalmClear
8:15 AM46.9 °F39.6 °F76 %30.13 in10.0 miSW (230°)4.6 mphClear
8:35 AM49.6 °F39.0 °F67 %30.12 in10.0 miSW (220°)4.6 mphClear
8:55 AM49.6 °F39.7 °F69 %30.12 in10.0 miSW (220°)4.6 mphClear
9:15 AM51.4 °F40.8 °F67 %30.12 in10.0 miSW (230°)6.9 mphClear
9:35 AM53.4 °F40.6 °F62 %30.11 in10.0 miSW (230°)8.1 mphClear
9:55 AM54.0 °F41.2 °F62 %30.11 in10.0 miSSW (210°)6.9 mphClear
10:15 AM54.5 °F42.4 °F64 %30.10 in10.0 miSSW (210°)9.2 mphClear
10:35 AM54.7 °F43.2 °F65 %30.09 in10.0 miSSW (200°)8.1 mphClear
10:55 AM55.4 °F43.0 °F63 %30.08 in10.0 miSSW (200°)11.5 mphClear
11:15 AM56.1 °F43.0 °F61 %30.07 in10.0 miSSW (210°)8.1 mph16.1 mphClear
11:35 AM56.8 °F42.8 °F59 %30.06 in10.0 miSouth (180°)9.2 mph16.1 mphClear
11:55 AM57.4 °F42.1 °F57 %30.06 in10.0 miSouth (190°)10.4 mph16.1 mphClear
12:15 PM58.1 °F42.3 °F56 %30.05 in10.0 miSSW (210°)10.4 mph17.3 mphClear
12:35 PM57.6 °F42.1 °F56 %30.02 in10.0 miSouth (190°)12.7 mph18.4 mphClear
1:15 PM57.4 °F41.4 °F55 %30.01 in10.0 miSSW (200°)10.4 mph17.3 mphClear
1:35 PM56.3 °F41.5 °F58 %29.99 in10.0 miSSW (210°)9.2 mphClear
1:55 PM55.9 °F42.4 °F61 %29.98 in10.0 miSSW (210°)5.8 mphScattered Clouds
2:15 PM54.5 °F43.7 °F67 %29.98 in10.0 miSW (220°)6.9 mphScattered Clouds
2:35 PM54.0 °F44.8 °F71 %29.97 in10.0 miSW (220°)5.8 mphScattered Clouds
2:55 PM54.1 °F45.7 °F73 %29.96 in10.0 miSSW (210°)8.1 mphScattered Clouds
3:15 PM54.1 °F45.5 °F73 %29.95 in10.0 miSSW (210°)5.8 mphScattered Clouds
3:35 PM54.5 °F45.1 °F71 %29.94 in10.0 miSW (220°)6.9 mphMostly Cloudy
3:55 PM54.9 °F44.1 °F67 %29.93 in10.0 miSSW (210°)8.1 mphScattered Clouds
4:15 PM54.5 °F43.2 °F66 %29.92 in10.0 miSW (220°)9.2 mphMostly Cloudy
4:35 PM54.7 °F43.2 °F65 %29.91 in10.0 miSW (220°)9.2 mphScattered Clouds
4:55 PM55.0 °F43.9 °F66 %29.91 in10.0 miSW (220°)6.9 mphClear
5:15 PM53.8 °F44.6 °F71 %29.90 in10.0 miSW (220°)6.9 mphClear
5:35 PM53.6 °F45.1 °F73 %29.90 in10.0 miSW (230°)10.4 mphScattered Clouds
5:55 PM53.2 °F45.5 °F75 %29.89 in10.0 miSW (230°)6.9 mphOvercast
6:15 PM53.8 °F45.7 °F74 %29.87 in10.0 miSSW (210°)9.2 mph16.1 mphOvercast
6:35 PM53.8 °F46.0 °F75 %29.87 in10.0 miSSW (210°)8.1 mphScattered Clouds
6:55 PM54.5 °F45.5 °F72 %29.87 in10.0 miSW (230°)10.4 mph18.4 mphMostly Cloudy
7:15 PM54.5 °F46.4 °F74 %29.86 in10.0 miSW (230°)10.4 mphOvercast
7:35 PM54.1 °F46.6 °F76 %29.85 in10.0 miSW (230°)9.2 mphOvercast
7:55 PM53.8 °F46.9 °F78 %29.82 in10.0 miSW (230°)6.9 mphMostly Cloudy
8:15 PM53.6 °F47.7 °F80 %29.81 in10.0 miSSW (200°)6.9 mphMostly Cloudy
8:35 PM53.8 °F48.4 °F82 %29.80 in10.0 miSSW (200°)8.1 mphScattered Clouds
8:55 PM54.3 °F49.1 °F83 %29.77 in10.0 miSouth (180°)9.2 mphScattered Clouds
9:15 PM54.7 °F49.8 °F84 %29.76 in10.0 miSouth (180°)9.2 mph16.1 mphClear
9:35 PM54.9 °F50.0 °F84 %29.75 in10.0 miSouth (190°)9.2 mph16.1 mphScattered Clouds
9:55 PM55.4 °F49.8 °F81 %29.74 in10.0 miSSW (200°)10.4 mph17.3 mphScattered Clouds
10:15 PM55.8 °F50.2 °F82 %29.73 in10.0 miSouth (190°)13.8 mph19.6 mphMostly Cloudy
10:35 PM56.3 °F50.0 °F79 %29.72 in10.0 miSouth (190°)13.8 mph20.7 mphMostly Cloudy
10:55 PM56.7 °F50.5 °F80 %29.69 in10.0 miSouth (190°)15.0 mph23.0 mphRainLight Rain
11:15 PM56.5 °F50.9 °F82 %29.69 in5.0 miSouth (190°)13.8 mph24.2 mphRainRain
11:35 PM55.4 °F51.4 °F87 %29.67 in4.0 miSSW (200°)11.5 mph23.0 mph0.04 inRainRain
11:55 PM55.8 °F52.7 °F89 %29.65 in4.0 miSSW (210°)13.8 mph26.5 mph0.06 inRainLight Rain
Hourly data recorded from KSUT, located miles away from Southport, North Carolina







STORIES FROM OUR PARTNERS